Regional Weather Roundup
Issued by NWS

Home | Current Version | Previous Version | Graphics & Text | Print | Product List | Glossary On
Versions: 1 2 3 4 5 6 7 8 9 10 11 12 13 14 15 16 17 18 19 20 21 22 23 24 25 26 27 28 29 30 31 32 33 34 35 36 37 38 39 40 41 42 43 44 45 46 47 48 49 50
000
ASUS43 KMKX 300159
RWRWI

WISCONSIN REGIONAL WEATHER ROUNDUP
NATIONAL WEATHER SERVICE MILWAUKEE/SULLIVAN WI
900 PM CDT SUN MAR 29 2015

NOTE: "FAIR" INDICATES FEW OR NO CLOUDS BELOW 12,000 FEET WITH NO
SIGNIFICANT WEATHER AND/OR OBSTRUCTIONS TO VISIBILITY.

WIZ001-002-006>008-014>016-023>028-300300-
NORTHWEST WISCONSIN

CITY           SKY/WX    TMP DP  RH WIND       PRES   REMARKS
SUPERIOR ARPT  PTCLDY    42  26  52 NW13      29.83R
ASHLAND        PTCLDY    38  28  67 W5        29.81R WCI  34
HAYWARD        MOCLDY    37  28  70 CALM      29.82R
SIREN          PTCLDY    43  25  49 NW9       29.87R
CUMBERLAND     CLEAR     41  27  56 NW14G20   29.84R
RICE LAKE      CLEAR     42  27  55 W10       29.86R
CHETEK         CLEAR     41  28  60 W6        29.84R
LADYSMITH      CLEAR     38  29  69 W8        29.83R WCI  33
EAU CLAIRE     NOT AVBL
MENOMONIE      CLEAR     46  26  45 NW14G21   29.86R
NEW RICHMOND   CLEAR     42  26  52 NW12      29.89R
OSCEOLA        CLEAR     44  28  51 NW9       29.92R
$$

WIZ003>005-009-010-017-018-300300-
NORTH CENTRAL WISCONSIN

CITY           SKY/WX    TMP DP  RH WIND       PRES   REMARKS
MANITOWISH WTR CLOUDY    35  32  88 NW15G21   29.74R WCI  25
ARBOR VITAE    CLOUDY    37  32  84 NW15G21   29.74R WCI  27
WOODRUFF       CLOUDY    37  32  84 NW15G21   29.74R WCI  27
RHINELANDER    CLOUDY    36  31  82 NW13G24   29.75R WCI  27
EAGLE RIVER    DRIZZLE   35  30  82 NW13G22   29.71R WCI  26
LAND O LAKES   CLOUDY    36  32  87 NW14      29.71R WCI  27
PHILLIPS       MOCLDY    37  31  79 NW7       29.77R WCI  31
TOMAHAWK       CLOUDY    36  32  84 W13       29.77R WCI  28
MEDFORD        MOCLDY    36  31  85 W7        29.79R WCI  30
MERRILL        MOCLDY    37  32  81 NW10G16   29.76R WCI  30
$$

WIZ029-030-035-036-043>047-300300-
CENTRAL WISCONSIN

CITY           SKY/WX    TMP DP  RH WIND       PRES   REMARKS
WAUSAU         CLOUDY    38  31  76 W10       29.77R WCI  31
MOSINEE        CLOUDY    36  32  87 NW6       29.80R WCI  31
MARSHFIELD     PTCLDY    37  31  78 W7        29.81R WCI  32
STEVENS POINT  PTCLDY    37  30  75 NW9       29.79R WCI  31
WAUPACA        MOCLDY    43  31  62 NW9G24    29.78R
WAUTOMA        NOT AVBL
WISC RAPIDS    FAIR      38  30  73 W3        29.83R
CAMP DOUGLAS   CLEAR     30  30 100 CALM      29.83R
$$

WIZ011>013-019>022-031-037>040-048>050-300300-
NORTHEAST WISCONSIN

CITY           SKY/WX    TMP DP  RH WIND       PRES   REMARKS
ANTIGO         CLOUDY    35  32  90 W15G21    29.73R WCI  25
SHAWANO        CLOUDY    39  34  82 W10G16    29.74R WCI  33
OCONTO         CLOUDY    39  33  78 W15G23    29.69R WCI  31
STURGEON BAY   CLOUDY    37  30  75 W15G22    29.70R WCI  28
GREEN BAY      CLOUDY    39  34  82 W15       29.74R WCI  31
MANITOWOC      NOT AVBL
APPLETON       CLOUDY    39  30  70 NW17G28   29.77R WCI  30
CLINTONVILLE   CLOUDY    39  32  75 NW12      29.76R WCI  32
OSHKOSH        CLOUDY    41  30  65 NW16G28   29.78R
$$

WIZ032>034-041-042-053>061-300300-
SOUTHWEST WISCONSIN

CITY           SKY/WX    TMP DP  RH WIND       PRES   REMARKS
LA CROSSE      CLEAR     48  28  46 W10       29.87R
SPARTA         CLEAR     42  32  66 W7        29.85R
VIROQUA        CLEAR     43  31  62 W12       29.85R
BOSCOBEL       CLEAR     47  29  49 W8        29.89R
PRAIRIE DU CHI CLEAR     45  29  53 W17G23    29.90R
PLATTEVILLE    CLEAR     42  33  69 W15       29.88R
$$

WIZ056-057-062-063-064-067-068-300300-
SOUTH CENTRAL WISCONSIN

CITY           SKY/WX    TMP DP  RH WIND       PRES   REMARKS
REEDSBURG      CLEAR     39  35  86 CALM      29.83R
BARABOO/DELLS  CLEAR     36  32  85 CALM      29.82R
LONE ROCK      NOT AVBL
MINERAL POINT  CLEAR     41  32  70 W13       29.85R
MADISON        MOCLDY    39  34  82 CALM      29.85R
MIDDLETON      MOCLDY    41  34  77 W5        29.84R
WATERTOWN      CLOUDY    41  35  77 W6        29.83R
MONROE         CLEAR     39  34  81 W16       29.85R WCI  30
JANESVILLE     MOCLDY    43  34  70 W7        29.86R
$$

WIZ051-052-058>065-066-070>072-300300-
SOUTHEAST WISCONSIN

CITY           SKY/WX    TMP DP  RH WIND       PRES   REMARKS
MILWAUKEE      CLOUDY    44  33  65 NW16G26   29.82R
WAUKESHA       CLOUDY    39  34  81 W17G29    29.83R WCI  30
MILWAUKEE/TIMM CLOUDY    41  36  81 W17G28    29.78S
RACINE         CLOUDY    44  34  67 W13G23    29.83R
BURLINGTON     CLOUDY    41  34  76 W14G20    29.83R
KENOSHA        CLOUDY    44  35  70 W14G25    29.83R
FOND DU LAC    MOCLDY    41  31  67 NW20G26   29.79R
SHEBOYGAN      CLOUDY    41  33  73 W14G23    29.76R
WEST BEND      CLOUDY    41  32  70 W17G25    29.78R
JUNEAU         CLOUDY    40  33  74 W12G21    29.83R WCI  34
$$

LSZ147-162-300300-
LAKE SUPERIOR

STATION/POSITION TIME  TEMP    WIND        PRES    WAVE
                       AIR SEA DIR/SP/G            HT/PER
                 (UTC) (F)     (DEG/KT/KT) (MB)    (FT/S)
DEVILS ISLAND    0100   40     290/ 20/ 21 1007.9R
PORT WING        0100   38     290/ 11/ 13 1009.1R
SAXON HARBOR     0100   41     290/  9/ 14 1008.1R
$$

LMZ867-665-643>646-300300-
LAKE MICHIGAN

STATION/POSITION TIME  TEMP    WIND        PRES    WAVE
                       AIR SEA DIR/SP/G            HT/PER
                 (UTC) (F)     (DEG/KT/KT) (MB)    (FT/S)
NORTHPORT PIER   0120   38     280/ 11/ 24 1002.7R
SISTER BAY       0017   35     280/ 15/ 17   N/A
KEWAUNEE LAKESHO 0100   40     290/ 17/ 22 1003.4R
SHEBOYGAN LAKESH 0100   42     290/ 19/ 23 1007.1R
PORT WASHINGTON  0100   43     290/  7/ 25 1008.1R
MILWAUKEE LAKESH 0100   44     300/ 13/ 18   N/A
KENOSHA   LAKESH 0100   46     300/ 19/ 28 1008.5R
$$

TC  - TEMPERATURE IN CELSIUS
VSB - VISIBILITY IN STATUTE MILES
WCI - WIND CHILL INDEX
HX  - HEAT INDEX



USA.gov is the U.S. government's official web portal to all federal, state and local government web resources and services.